User: anonymous   Login
Location: Vancouver
(49.2500°N, 123.1330°W)
Time: 13:50:25
(UTC-07:00)
Language:

Cosmos 1939 Rocket - Orbit

View from above orbital plane
View from above orbital plane
View from above satellite
View from above satellite

Ground track
Ground track

The orbit data is extracted from the following two-line orbital elements,

1 19046U 88032B   17207.89645827 -.00000417 +00000-0 -26666-4 0  9991
2 19046 097.5223 253.6659 0035879 195.6620 164.3498 15.02224138578314
Epoch (UTC): 26 July 2017 21:30:53
Eccentricity: 0.0035879
inclination: 97.5223°
perigee height: 535 km
apogee height: 585 km
right ascension of ascending node: 253.6659°
argument of perigee: 195.6620°
revolutions per day: 15.02224138
mean anomaly at epoch: 164.3498°
orbit number at epoch: 57831

The dashed part of the orbit path shows where the satellite is in the earth's shadow,  

DLR